TimeEST,TemperatureF,Dew PointF,Humidity,Sea Level PressureIn,VisibilityMPH,Wind Direction,Wind SpeedMPH,Gust SpeedMPH,PrecipitationIn,Events,Conditions,WindDirDegrees,DateUTC
12:53 AM,54.0,48.9,83,30.21,10.0,Calm,Calm,-,N/A,,Clear,0,2012-12-05 05:53:00
1:53 AM,52.0,48.0,86,30.20,10.0,Calm,Calm,-,N/A,,Clear,0,2012-12-05 06:53:00
2:53 AM,50.0,46.0,86,30.19,10.0,Calm,Calm,-,N/A,,Clear,0,2012-12-05 07:53:00
3:53 AM,50.0,46.0,86,30.18,10.0,Calm,Calm,-,N/A,,Clear,0,2012-12-05 08:53:00
4:53 AM,48.9,45.0,86,30.17,10.0,Calm,Calm,-,N/A,,Clear,0,2012-12-05 09:53:00
5:53 AM,46.9,44.1,90,30.19,10.0,Calm,Calm,-,N/A,,Clear,0,2012-12-05 10:53:00
6:53 AM,46.9,43.0,86,30.20,10.0,Calm,Calm,-,N/A,,Clear,0,2012-12-05 11:53:00
7:53 AM,46.9,43.0,86,30.21,10.0,Calm,Calm,-,N/A,Fog,Patches of Fog,0,2012-12-05 12:53:00
9:53 AM,66.9,54.0,63,30.22,10.0,Calm,Calm,-,N/A,,Clear,0,2012-12-05 14:53:00
10:53 AM,73.0,54.0,51,30.20,10.0,Calm,Calm,-,N/A,,Clear,0,2012-12-05 15:53:00
11:53 AM,78.1,50.0,37,30.18,10.0,Variable,3.5,-,N/A,,Clear,0,2012-12-05 16:53:00
12:53 PM,79.0,46.0,31,30.14,10.0,Variable,3.5,-,N/A,,Mostly Cloudy,0,2012-12-05 17:53:00
1:53 PM,78.1,46.0,32,30.10,10.0,NNE,4.6,-,N/A,,Partly Cloudy,30,2012-12-05 18:53:00
2:53 PM,77.0,46.0,33,30.07,10.0,NE,6.9,-,N/A,,Partly Cloudy,50,2012-12-05 19:53:00
3:53 PM,79.0,46.0,31,30.07,10.0,East,3.5,-,N/A,,Partly Cloudy,100,2012-12-05 20:53:00
4:53 PM,75.9,46.0,35,30.07,10.0,ESE,4.6,-,N/A,,Partly Cloudy,110,2012-12-05 21:53:00
5:53 PM,69.1,46.9,45,30.07,10.0,Calm,Calm,-,N/A,,Partly Cloudy,0,2012-12-05 22:53:00
6:53 PM,62.1,48.9,62,30.09,10.0,Calm,Calm,-,N/A,,Clear,0,2012-12-05 23:53:00
7:53 PM,59.0,48.0,67,30.09,10.0,Calm,Calm,-,N/A,,Clear,0,2012-12-06 00:53:00
8:53 PM,55.9,46.9,72,30.09,10.0,Calm,Calm,-,N/A,,Clear,0,2012-12-06 01:53:00
9:53 PM,55.0,46.9,74,30.09,10.0,Calm,Calm,-,N/A,,Clear,0,2012-12-06 02:53:00
10:53 PM,57.0,48.9,74,30.09,10.0,Calm,Calm,-,N/A,,Mostly Cloudy,0,2012-12-06 03:53:00
11:53 PM,57.0,48.9,74,30.09,10.0,Calm,Calm,-,N/A,,Overcast,0,2012-12-06 04:53:00